Vorticity
nan nan nan nan nan nan nan nan nan nan nan nan nan nan nan nan nan nan nan nan nan nan nan nan nan nan nan nan nan nan nan nan nan nan nan nan nan nan nan nan nan nan nan
nan 9 9 8 7 6 7 8 8 7 7 8 8 7 8 7 8 7 7 7 7 6 6 5 4 4 5 5 5 5 5 4 4 5 4 4 4 4 4 4 4 4 nan
nan 9 8 7 8 10 4 7 9 7 8 8 8 6 7 6 8 8 6 7 6 7 7 7 5 4 4 4 4 4 5 5 5 5 5 4 3 3 4 4 4 4 nan
nan 8 10 10 7 9 9 7 7 8 8 8 7 7 6 7 6 6 7 6 7 6 8 9 7 6 5 4 4 4 4 5 5 4 5 5 4 4 3 4 4 3 nan
nan 6 8 10 9 5 7 8 9 8 9 8 7 8 6 8 7 6 7 8 8 6 10 11 6 7 7 5 4 4 4 4 4 5 5 5 5 4 4 4 4 4 nan
nan 3 8 8 7 7 6 5 7 8 9 9 8 7 7 7 7 7 7 7 6 6 8 8 7 8 10 7 5 4 4 5 5 5 5 5 5 5 4 4 4 4 nan
nan 5 8 6 6 7 10 8 6 8 8 8 8 7 7 8 7 7 8 8 7 8 6 5 9 9 13 12 8 6 5 5 5 5 5 5 5 5 5 5 4 4 nan
nan 7 7 7 7 6 8 7 6 7 9 8 7 7 7 8 9 9 7 8 9 9 8 7 5 9 8 11 13 12 9 7 8 8 8 8 6 6 5 4 4 4 nan
nan 8 8 7 6 8 9 8 9 7 6 6 5 6 8 10 12 12 8 7 10 8 9 10 7 7 6 8 11 15 13 7 10 8 8 11 12 9 8 7 7 7 nan
nan 8 7 8 5 8 8 7 9 6 7 6 7 7 6 9 8 7 11 10 7 9 8 7 8 10 10 9 8 11 14 12 10 10 7 5 7 9 10 12 12 11 nan
nan 7 6 6 6 8 9 9 8 6 5 6 8 9 10 5 5 8 8 10 8 10 10 11 10 10 10 8 8 14 13 10 8 8 9 10 10 10 10 9 9 10 nan
nan 10 8 7 7 8 7 9 7 7 5 5 5 8 9 8 6 7 7 7 7 11 11 10 10 9 10 11 9 14 12 8 7 9 11 12 11 10 10 10 10 10 nan
nan 10 7 5 6 7 8 6 7 9 8 8 6 5 6 5 8 7 7 9 12 7 8 7 9 12 12 9 14 11 7 10 11 11 11 10 9 8 8 8 9 9 nan
nan 8 6 6 4 5 8 6 8 8 8 8 9 7 8 9 9 7 7 8 11 9 9 8 9 10 11 12 17 11 7 11 10 10 8 8 7 7 7 8 8 8 nan
nan 8 7 6 6 5 4 5 6 7 7 9 9 7 7 7 8 9 11 12 7 9 11 9 10 11 10 10 13 10 12 14 8 7 6 6 7 6 7 8 8 8 nan
nan 7 7 6 6 6 6 6 5 8 6 5 8 8 6 8 9 11 11 11 9 7 10 13 8 13 12 10 12 8 12 9 6 6 7 6 6 7 7 7 7 8 nan
nan 8 9 9 8 7 7 7 7 8 7 6 7 8 7 9 9 10 10 9 10 9 7 7 14 16 9 8 6 8 10 6 10 13 7 5 4 5 7 8 9 8 nan
nan 10 8 9 8 8 8 9 9 8 7 6 8 10 9 8 10 7 9 8 8 8 10 10 10 10 11 10 8 10 6 8 13 17 8 4 4 6 7 7 7 7 nan
nan 9 8 9 8 8 8 8 7 7 7 8 10 10 10 5 6 9 9 9 9 10 9 9 10 10 10 11 12 7 9 10 15 11 6 5 10 8 7 6 7 8 nan
nan 8 9 8 8 9 9 8 8 7 7 10 10 10 12 11 9 9 11 10 9 10 11 7 8 10 10 10 10 11 10 10 8 6 8 10 14 15 11 7 7 7 nan
nan 9 7 9 8 8 11 13 10 9 10 11 12 11 13 15 12 9 8 12 9 8 10 9 6 8 10 12 10 8 10 8 10 12 9 12 11 10 14 14 14 17 nan
nan 9 10 10 7 9 14 12 10 12 15 10 8 11 13 16 18 16 15 18 18 16 9 9 11 10 10 9 10 9 9 8 9 11 9 8 8 8 10 13 16 17 nan
nan 10 10 10 10 9 13 13 12 9 11 11 10 11 9 14 15 13 13 11 14 17 18 14 8 12 14 12 11 9 6 7 9 7 8 9 9 9 9 12 12 9 nan
nan 10 11 10 9 13 19 14 9 9 12 16 18 15 12 13 14 11 3 4 7 6 12 15 17 16 11 14 13 10 9 7 8 10 10 10 10 9 8 12 13 8 nan
nan 12 14 17 16 14 16 14 9 10 14 16 17 18 16 16 19 9 6 7 6 6 7 12 10 6 8 9 13 14 11 10 9 10 12 11 9 11 9 10 15 14 nan
nan nan nan nan nan nan nan nan nan nan nan nan nan nan nan nan nan nan nan nan nan nan nan nan nan nan nan nan nan nan nan nan nan nan nan nan nan nan nan nan nan nan nan
CAPE
79 57 114 262 124 39 0 0 0 0 1 0 0 2 4 28 22 6 10 24 27 20 10 5 7 6 3 2 1 1 1 1 0 0 0 0 0 0 0 0 0 0 0
29 35 37 134 228 161 61 17 10 1 0 0 1 3 7 23 28 9 3 9 18 24 18 9 7 5 2 0 0 0 0 0 0 0 0 0 0 0 0 0 0 0 0
42 93 83 162 298 235 251 140 39 0 0 0 0 5 6 16 16 27 1 3 4 12 27 27 12 6 1 0 0 0 0 0 0 0 0 0 0 0 0 0 0 0 0
10 6 76 131 269 266 184 120 38 0 2 0 0 3 5 5 18 27 21 12 5 9 10 24 23 10 1 0 0 0 0 0 0 0 0 0 0 0 0 0 0 0 0
0 0 44 116 137 100 100 112 94 79 13 3 1 0 2 0 19 6 23 25 20 17 15 3 12 19 10 1 0 0 0 0 0 0 0 0 0 0 0 0 0 0 0
10 31 32 63 59 15 57 98 102 65 35 3 0 0 0 0 1 15 3 3 9 2 15 16 0 0 8 18 4 6 6 6 1 0 0 0 0 0 0 0 0 0 0
40 37 70 73 62 16 10 68 30 46 5 4 0 0 0 0 0 0 1 0 0 0 0 5 13 5 0 0 15 15 45 37 22 8 0 0 0 0 0 0 0 0 0
36 141 158 147 45 24 67 64 52 56 15 17 0 0 0 0 0 0 0 0 0 0 0 0 0 29 10 2 0 16 26 32 25 35 39 18 5 1 1 1 0 0 0
85 154 158 131 94 191 140 233 225 206 146 22 17 106 146 169 114 0 0 0 0 0 0 0 0 0 5 16 7 11 0 23 69 26 42 68 81 75 40 34 32 29 20
61 78 113 112 170 170 206 191 179 194 158 111 0 0 108 178 104 28 8 1 0 0 0 0 0 0 1 0 1 0 0 0 0 27 17 14 12 20 28 31 50 59 75
2 13 56 99 86 105 253 233 192 131 191 243 180 140 130 141 118 66 30 113 0 0 0 0 0 0 0 0 0 0 0 0 0 0 0 0 0 0 0 0 0 3 40
11 31 59 24 59 79 199 269 313 230 230 278 267 333 232 147 91 20 6 110 195 57 0 0 0 0 0 1 0 0 0 0 0 0 0 0 0 0 0 0 0 0 0
0 0 6 37 33 67 219 321 296 348 294 303 223 235 136 185 118 225 220 305 306 76 0 4 0 1 7 8 0 0 0 0 0 0 0 0 0 0 0 0 0 0 0
0 0 0 0 10 34 101 320 294 315 573 435 479 296 181 354 289 310 351 266 1 4 7 2 0 0 0 0 0 0 0 0 0 0 0 0 0 0 0 0 0 0 0
0 1 1 0 6 81 92 235 224 193 331 160 353 524 414 451 420 419 407 311 115 18 3 0 0 0 0 0 0 0 0 0 0 0 0 0 0 0 0 0 0 0 0
66 39 55 26 23 15 74 118 170 211 271 332 432 399 412 424 391 373 317 106 19 0 0 0 0 2 0 0 0 0 0 0 0 0 0 0 0 0 0 0 0 0 0
50 45 43 29 41 61 114 140 169 219 241 271 294 323 317 241 133 76 77 5 1 0 0 1 1 0 0 0 0 0 0 0 0 0 0 0 0 0 0 0 0 0 0
54 14 41 23 42 70 134 129 153 135 186 235 274 276 282 63 93 83 1 1 0 0 0 0 0 0 0 0 0 0 0 0 0 0 0 0 0 0 0 0 0 0 0
101 65 46 47 35 80 144 176 179 179 196 233 291 251 93 104 13 1 0 0 0 0 0 0 0 0 0 0 0 0 0 0 0 0 0 0 0 0 0 0 0 0 0
126 122 46 55 68 72 89 114 115 128 157 127 233 149 1 49 25 0 0 0 0 0 0 0 0 0 0 0 0 0 0 0 0 0 0 0 0 0 0 0 0 0 0
228 193 155 124 132 116 70 150 128 150 152 155 87 55 31 15 0 0 0 0 0 0 0 0 0 0 0 0 0 0 0 0 0 0 0 0 0 0 0 0 0 0 0
197 184 110 105 138 23 0 0 2 197 76 112 14 0 0 0 0 0 0 0 0 0 0 0 0 0 0 0 0 0 0 0 0 0 0 0 0 0 0 0 0 0 0
181 128 118 103 126 146 0 0 0 1 9 26 0 0 0 0 1 0 0 0 0 0 0 0 0 0 0 0 0 0 0 0 0 0 0 0 0 0 0 0 0 0 0
287 287 244 234 254 198 0 0 0 0 0 0 0 0 0 0 0 0 0 0 0 0 0 0 0 0 0 0 0 0 0 0 0 0 0 0 0 0 0 0 0 0 0
296 227 213 179 201 213 0 1 0 0 1 0 0 0 0 0 0 0 0 0 1 1 1 0 0 0 0 0 0 0 0 0 0 0 0 0 0 0 4 1 0 0 0
247 87 46 0 0 0 1 1 1 0 0 0 0 0 0 0 1 0 0 0 0 0 0 0 0 0 0 0 0 0 0 0 0 0 0 0 0 0 0 0 0 3 0